sat.trackr.live / text

‹ back to catalog

STARLINK-32084

NORAD 60347 · 2024-136U

PAYLOAD ACTIVE UNKNOWN

§ Identity

Operator
Country
US
Launch date
2024-08-02
Launch site
AFETR
Launch vehicle
Mass (kg)
RCS (m²)

Purposes: comms

External: N2YO · Heavens-Above · Gunter

§ Orbital elements

Epoch: 2026-09-21T08:45:57.663072Z

Period
94.01 min
Inclination
53.1585°
Eccentricity
0.0001080
Mean motion
15.31710645 rev/d
Perigee alt
470.0 km
Apogee alt
471.4 km
Semi-major
6,848.8 km
B*
2.3660e-5
RAAN
245.3314°
Arg perigee
76.8876°
Mean anomaly
283.2246°
Rev number
11,964

§ Raw data

STARLINK-320841 60347U 24136U   26264.36525073  .00000369  00000+0  23660-4 0  99952 60347  53.1585 245.3314 0001080  76.8876 283.2246 15.31710645119643

JSON: /api/v1/satellites/60347 · /tle

For live sub-satellite position, see the globe view (requires WebGL).

§ Visibility from observer

Set your observer location to see the next 7 days of passes ≥ 10°. The values pass through the URL so the page stays shareable.

No JS? Fill the form by hand. The geolocation button needs JavaScript.